TimeCDT,TemperatureF,Dew PointF,Humidity,Sea Level PressureIn,VisibilityMPH,Wind Direction,Wind SpeedMPH,Gust SpeedMPH,PrecipitationIn,Events,Conditions,WindDirDegrees,DateUTC
12:43 AM,69.8,62.6,78,30.03,7.0,NNW,13.8,-,N/A,,Clear,340,2011-10-21 05:43:00
2:17 AM,69.8,64.4,83,30.05,7.0,NNW,18.4,-,N/A,,Clear,330,2011-10-21 07:17:00
2:41 AM,69.8,62.6,78,30.05,7.0,NNW,15.0,-,N/A,,Clear,330,2011-10-21 07:41:00
3:41 AM,69.8,64.4,83,30.07,7.0,NNW,12.7,-,N/A,,Clear,340,2011-10-21 08:41:00
4:43 AM,69.8,64.4,83,30.03,7.0,NNW,17.3,-,N/A,,Clear,330,2011-10-21 09:43:00
5:43 AM,69.8,64.4,83,30.05,7.0,NNW,11.5,-,N/A,,Clear,340,2011-10-21 10:43:00
6:45 AM,69.8,64.4,83,30.03,7.0,North,10.4,-,N/A,,Partly Cloudy,350,2011-10-21 11:45:00
7:41 AM,71.6,62.6,73,30.08,8.0,North,11.5,-,N/A,,Scattered Clouds,360,2011-10-21 12:41:00
8:44 AM,73.4,62.6,69,30.10,8.0,North,11.5,-,N/A,,Scattered Clouds,360,2011-10-21 13:44:00
9:40 AM,75.2,62.6,65,30.14,8.0,North,11.5,-,N/A,,Scattered Clouds,360,2011-10-21 14:40:00
10:44 AM,77.0,60.8,57,30.10,8.0,NNE,11.5,-,N/A,,Scattered Clouds,30,2011-10-21 15:44:00
11:47 AM,77.0,60.8,57,30.09,8.0,NNE,11.5,-,N/A,,Scattered Clouds,30,2011-10-21 16:47:00
12:41 PM,77.0,64.4,65,30.04,8.0,NNE,9.2,-,N/A,,Mostly Cloudy,20,2011-10-21 17:41:00
1:43 PM,78.8,60.8,54,30.03,8.0,NNE,11.5,-,N/A,,Scattered Clouds,30,2011-10-21 18:43:00
2:43 PM,78.8,60.8,54,30.00,8.0,NNE,13.8,-,N/A,,Scattered Clouds,20,2011-10-21 19:43:00
3:48 PM,77.0,60.8,57,30.03,8.0,NNE,16.1,-,N/A,,Scattered Clouds,20,2011-10-21 20:48:00
4:48 PM,77.0,60.8,57,30.01,8.0,NNE,10.4,-,N/A,,Scattered Clouds,20,2011-10-21 21:48:00
5:49 PM,73.4,59.0,61,30.02,8.0,NNE,6.9,-,N/A,,Scattered Clouds,20,2011-10-21 22:49:00
6:46 PM,73.4,60.8,65,30.01,7.0,North,6.9,-,N/A,,Scattered Clouds,10,2011-10-21 23:46:00
7:42 PM,73.4,62.6,69,30.03,7.0,North,15.0,-,N/A,,Scattered Clouds,360,2011-10-22 00:42:00
8:49 PM,73.4,62.6,69,30.04,7.0,North,9.2,-,N/A,,Partly Cloudy,360,2011-10-22 01:49:00
9:45 PM,71.6,62.6,73,30.06,7.0,North,9.2,-,N/A,,Scattered Clouds,360,2011-10-22 02:45:00
10:46 PM,71.6,60.8,69,30.03,7.0,North,11.5,-,N/A,,Scattered Clouds,360,2011-10-22 03:46:00
11:42 PM,71.6,62.6,73,30.02,7.0,North,11.5,-,N/A,,Scattered Clouds,350,2011-10-22 04:42:00